[[{"header":{"parameterUnit":"m.s-1","parameterCategory":1,"la1":30.2991,"la2":30.254,"lo1":-89.0895,"lo2":-89.0444,"dy":0.0017,"dx":0.0017,"nx":28,"ny":28,"refTime":"2025-03-07T03:00:00:Z","depth":0,"parameterNumber":2,"parameterNumberName":"U-component_of_WINDS"},"data":[0,0,0,0,0,0,0,0,0,0,0,0,0,0,0,0,0,0,0,0,0,0,0,0,0,0,0,0,0,0,0,0,0,0,0,0,0,0,0,0,0,0,0,0,0,0,0,0,0,0,0,0,0,0,0,0,0,0,2.0668,2.0669,0,2.0746,2.0747,2.0748,2.0726,2.0725,2.0723,2.0722,2.0797,2.0801,2.0804,0,0,0,0,0,0,0,0,0,0,0,0,0,2.0498,2.0501,2.0668,2.0669,2.067,2.0746,2.0747,2.0748,2.0726,2.0725,2.0723,2.0721,2.0796,2.08,2.0804,0,0,0,0,0,0,0,0,0,0,0,0,0,2.0573,2.0502,2.0668,2.0669,2.067,2.0746,2.0747,2.0748,2.0727,2.0724,2.0722,2.072,2.0795,2.08,2.0805,2.0884,0,0,2.0821,2.0823,0,0,0,0,0,0,0,0,2.0569,2.0579,2.0668,2.0669,2.067,2.0724,2.0714,2.0793,2.0727,2.0705,2.0722,2.0719,2.0774,2.0781,2.0801,2.0887,2.089,2.0821,2.0824,2.0827,2.0828,0,0,0,0,0,0,0,2.0564,2.0576,2.0699,2.0669,2.067,2.0664,2.0672,2.0729,2.0752,2.0707,2.0705,2.0715,2.0775,2.0796,2.0802,2.0892,2.0821,2.0826,2.0829,2.0831,2.1044,2.1047,0,0,0,0,0,0,2.0558,2.0572,2.0696,2.0701,2.0613,2.0669,2.0678,2.0709,2.0751,2.0755,2.0717,2.0714,2.0788,2.0796,2.0805,2.0898,2.0827,2.0831,2.0834,2.1042,2.1045,2.1048,0,0,0,0,0,0,2.0555,2.057,2.0693,2.0636,2.0651,2.0674,2.0709,2.0712,2.0733,2.0759,2.0762,2.0735,2.0787,2.0798,2.0864,2.09,2.0834,2.0838,2.1039,2.1043,2.1046,2.1085,0,0,0,0,0,0,2.055,2.0568,2.0599,2.0637,2.0655,2.0752,2.0712,2.0715,2.0742,2.0739,2.0776,2.078,2.0786,2.0856,2.0869,2.0906,2.0843,2.1035,2.104,2.1045,2.1081,2.109,2.1098,0,0,0,0,0,2.0544,2.0607,2.0601,2.0616,2.0694,2.0755,2.0764,2.077,2.0745,2.0776,2.0793,2.0779,2.0895,2.0863,2.0878,2.0917,2.1033,2.1039,2.1045,2.1077,2.1088,2.1098,0,0,0,0,0,0,2.0572,2.0612,2.0606,2.0684,2.0716,2.0751,2.0789,2.0782,2.0821,2.0816,2.0821,2.0829,2.0897,2.0914,2.0878,2.0994,2.096,2.0969,2.098,2.0991,2.0999,2.0992,2.0847,0,0,0,0,0,2.0587,2.0634,2.0667,2.0732,2.0749,2.0767,2.0793,2.0795,2.0828,2.0841,2.0862,2.0894,2.0937,2.0965,2.1007,2.1084,2.1091,2.1118,2.1127,2.1133,2.114,2.118,2.1191,2.1066,2.1066,2.1066,0,0,2.0619,2.0647,2.0676,2.0738,2.0763,2.081,2.0778,2.0829,2.0863,2.0848,2.0912,2.0929,2.0964,2.1036,2.1069,2.1052,2.1176,2.1141,2.1146,2.1149,2.1187,2.1199,2.1209,2.107,2.107,2.1069,0,0,2.07,2.0728,2.0784,2.081,2.0849,2.0861,2.0874,2.0911,2.0921,2.0986,2.0975,2.1015,2.109,2.1115,2.1138,2.1229,2.1217,2.1243,2.1286,2.1324,2.1334,2.1343,2.1372,2.1383,2.125,2.125,2.125,0,2.0734,2.0806,2.0813,2.0865,2.0892,2.0882,2.0938,2.0963,2.1013,2.1031,2.1012,2.1105,2.1129,2.1205,2.1227,2.1247,2.126,2.1237,2.1332,2.1341,2.1349,2.1377,2.1389,2.1252,2.1252,2.1252,2.1252,0,2.0844,2.0894,2.0934,2.0984,2.1015,2.1069,2.1083,2.1114,2.1113,2.1126,2.1191,2.1219,2.1265,2.1284,2.1284,2.1359,2.1348,2.1331,2.1297,2.1364,2.139,2.1401,2.1256,2.1255,2.1254,2.1254,0,0,2.0943,2.0996,2.1011,2.1032,2.1075,2.1113,2.1165,2.1212,2.1236,2.1272,2.1314,2.1378,2.1363,2.1389,2.1391,2.1426,2.1493,2.1405,2.1405,2.1417,2.1575,2.1585,2.1597,2.1487,2.1489,2.149,2.1571,0,2.1025,2.1119,2.1127,2.121,2.1255,2.1247,2.1292,2.1323,2.1337,2.1375,2.139,2.1434,2.1412,2.1427,2.1461,2.1477,2.1524,2.1472,2.1523,2.1525,2.1511,2.1612,2.1623,2.1697,2.1582,2.1583,2.1585,0,2.1133,2.1172,2.126,2.1295,2.1314,2.1355,2.1397,2.1436,2.1469,2.1477,2.1506,2.1504,2.1556,2.1522,2.1593,2.1557,2.1579,2.159,2.1593,2.1596,2.1556,2.1613,2.1721,2.1731,2.1602,2.16,2.1599,0,2.1193,2.1267,2.1329,2.1348,2.1392,2.142,2.1439,2.1471,2.1498,2.1535,2.1552,2.1594,2.1616,2.1648,2.1657,2.1632,2.1727,2.1694,2.1732,2.1732,2.175,2.1748,2.1859,2.177,2.1769,2.1769,2.1769,0,2.1282,2.1335,2.1356,2.1393,2.1452,2.1462,2.1519,2.1537,2.1565,2.1604,2.1601,2.1638,2.1649,2.1687,2.1695,2.175,2.1762,2.1767,2.1768,2.1766,2.1765,2.1778,2.1771,2.1772,2.1771,2.1771,2.177,0,2.1356,2.1373,2.1439,2.1476,2.1486,2.1527,2.1558,2.1593,2.1607,2.1657,2.1669,2.169,2.1735,2.1748,2.1802,2.1807,2.1872,2.1869,2.186,2.1859,2.1895,2.189,2.2016,2.2032,2.1935,2.1936,2.1937,0,2.141,2.1451,2.1492,2.1519,2.154,2.1583,2.161,2.1621,2.1649,2.1691,2.1721,2.1766,2.1801,2.1874,2.1893,2.1934,2.193,2.1971,2.1936,2.1932,2.1927,2.1923,2.1926,2.1977,2.1978,2.1979,2.1979,0,2.1504,2.151,2.155,2.1594,2.1627,2.1661,2.1694,2.1716,2.1731,2.1763,2.1809,2.1837,2.1893,2.1936,2.1978,2.1996,2.1989,2.1991,2.2001,2.1998,2.199,2.1991,2.1875,2.1987,2.1986,2.1986,2.1985,2.1985,2.1568,2.1603,2.1637,2.1681,2.1708,2.1738,2.1773,2.1791,2.1831,2.1877,2.1881,2.1931,2.1962,2.2018,2.2038,2.2076,2.2063,2.2079,2.2083,2.2086,2.2087,2.1987,2.2084,2.2084,2.2084,2.2083,2.2083,0,2.1658,2.168,2.1721,2.1767,2.1802,2.1796,2.1831,2.186,2.1904,2.1935,2.1971,2.2023,2.2066,2.2089,2.213,2.2156,2.2154,2.2166,2.2163,2.2167,2.2097,2.2083,2.2167,2.2167,2.2167,2.2167,2.2167,2.2167,2.1709,2.1767,2.1777,2.1848,2.1869,2.1919,2.1939,2.1967,2.1991,2.205,2.2086,2.2101,2.2128,2.2172,2.221,2.2216,2.223,2.2243,2.2247,2.2181,2.2172,2.2163,2.215,2.2247,2.2247,2.2312,2.2313,2.2313]},{"header":{"parameterUnit":"m.s-1","parameterCategory":1,"la1":30.2991,"la2":30.254,"lo1":-89.0895,"lo2":-89.0444,"dy":0.0017,"dx":0.0017,"nx":28,"ny":28,"refTime":"2025-03-07T03:00:00:Z","depth":0,"parameterNumber":3,"parameterNumberName":"V-component_of_WINDS"},"data":[0,0,0,0,0,0,0,0,0,0,0,0,0,0,0,0,0,0,0,0,0,0,0,0,0,0,0,0,0,0,0,0,0,0,0,0,0,0,0,0,0,0,0,0,0,0,0,0,0,0,0,0,0,0,0,0,0,0,2.7456,2.7457,0,2.7498,2.7499,2.7499,2.746,2.7459,2.7457,2.7456,2.7497,2.75,2.7502,0,0,0,0,0,0,0,0,0,0,0,0,0,2.7339,2.7342,2.7456,2.7457,2.7457,2.7498,2.7499,2.7499,2.746,2.7459,2.7457,2.7455,2.7496,2.7499,2.7502,0,0,0,0,0,0,0,0,0,0,0,0,0,2.7387,2.7342,2.7456,2.7443,2.7442,2.7498,2.7499,2.7499,2.7461,2.7459,2.7456,2.7454,2.7495,2.7499,2.7503,2.7574,0,0,2.7515,2.7516,0,0,0,0,0,0,0,0,2.7384,2.7391,2.7444,2.7444,2.7443,2.7472,2.7473,2.7524,2.7461,2.7454,2.7456,2.7453,2.749,2.7495,2.7508,2.7576,2.7577,2.7515,2.7517,2.7519,2.752,0,0,0,0,0,0,0,2.7381,2.7389,2.7473,2.7445,2.7444,2.7434,2.7438,2.7482,2.7485,2.7454,2.7451,2.7457,2.749,2.7504,2.7508,2.7578,2.7515,2.7518,2.7521,2.7522,2.7704,2.7706,0,0,0,0,0,0,2.7379,2.7386,2.7471,2.7474,2.7407,2.7438,2.7442,2.7465,2.7484,2.7485,2.7459,2.7455,2.7499,2.7504,2.751,2.7592,2.7519,2.7523,2.7525,2.7701,2.7704,2.7707,0,0,0,0,0,0,2.7377,2.7387,2.747,2.743,2.7439,2.7442,2.7468,2.7467,2.7481,2.7488,2.7488,2.7473,2.7497,2.7504,2.7558,2.7593,2.7524,2.7528,2.7698,2.7702,2.7706,2.7759,0,0,0,0,0,0,2.7374,2.7387,2.7414,2.743,2.7442,2.7518,2.747,2.7469,2.7488,2.7483,2.7501,2.7502,2.7496,2.7552,2.7561,2.7597,2.7531,2.7695,2.77,2.7704,2.7754,2.7764,2.7773,0,0,0,0,0,2.737,2.7428,2.7416,2.7426,2.7476,2.752,2.7527,2.7519,2.7491,2.7518,2.7522,2.7501,2.7588,2.7558,2.7568,2.7606,2.7693,2.7699,2.7704,2.775,2.7762,2.7772,0,0,0,0,0,0,2.7416,2.743,2.7417,2.7482,2.75,2.7514,2.7548,2.7532,2.7558,2.7553,2.7541,2.7545,2.7601,2.7609,2.7575,2.7674,2.7636,2.7644,2.7667,2.7679,2.7688,2.7685,2.7534,0,0,0,0,0,2.7434,2.7469,2.7479,2.7536,2.7545,2.7545,2.7564,2.7556,2.7574,2.7582,2.759,2.7607,2.7638,2.7659,2.7688,2.7755,2.7757,2.7785,2.7795,2.7802,2.7809,2.7843,2.7855,2.7725,2.7725,2.7725,0,0,2.7471,2.7483,2.7506,2.7545,2.7558,2.7594,2.7552,2.7592,2.7618,2.7588,2.7638,2.7645,2.7663,2.7723,2.775,2.7731,2.7846,2.781,2.7816,2.7818,2.785,2.7863,2.7874,2.7729,2.7729,2.7728,0,0,2.7557,2.757,2.7618,2.7631,2.7652,2.7651,2.7662,2.7678,2.7681,2.7732,2.7709,2.7739,2.7793,2.7807,2.7821,2.791,2.7891,2.792,2.7968,2.8002,2.8012,2.8021,2.8051,2.8062,2.7927,2.7927,2.7927,0,2.76,2.7654,2.7644,2.7685,2.7702,2.7677,2.7724,2.7737,2.7766,2.7778,2.7756,2.7822,2.7834,2.7896,2.7917,2.793,2.7941,2.7918,2.8011,2.802,2.8028,2.8057,2.8069,2.793,2.793,2.7929,2.7929,0,2.7705,2.7743,2.7779,2.7807,2.7828,2.7872,2.7868,2.789,2.788,2.7881,2.7932,2.7944,2.7974,2.7988,2.7979,2.8048,2.8036,2.8013,2.7974,2.8044,2.8071,2.8082,2.7935,2.7934,2.7933,2.7932,0,0,2.7823,2.7843,2.7857,2.7868,2.7888,2.7916,2.7958,2.7987,2.8006,2.8026,2.806,2.8106,2.8084,2.81,2.8092,2.8121,2.8189,2.8095,2.8095,2.8111,2.8264,2.8281,2.8294,2.8177,2.8179,2.818,2.8262,0,2.7908,2.7982,2.7973,2.8043,2.8076,2.8051,2.8087,2.8102,2.8104,2.8132,2.8133,2.8165,2.8135,2.8144,2.8172,2.8175,2.8219,2.8169,2.8207,2.8208,2.8202,2.8308,2.8326,2.8402,2.8273,2.8274,2.8276,0,2.8018,2.8041,2.8114,2.8127,2.814,2.8174,2.8199,2.8226,2.8242,2.8241,2.8258,2.8244,2.8285,2.8245,2.83,2.8266,2.8281,2.8284,2.8287,2.829,2.8246,2.8312,2.8427,2.8438,2.8292,2.8291,2.829,0,2.8094,2.8144,2.8194,2.8205,2.8221,2.8244,2.8252,2.8266,2.8283,2.8305,2.8316,2.8343,2.8357,2.8377,2.837,2.8342,2.8426,2.8386,2.8425,2.8425,2.8443,2.8442,2.8561,2.8454,2.8454,2.8454,2.8454,0,2.819,2.8235,2.8228,2.8259,2.8308,2.8297,2.8346,2.835,2.8362,2.8392,2.8372,2.8401,2.839,2.8417,2.8412,2.8457,2.8464,2.8464,2.8461,2.8465,2.8465,2.8474,2.8468,2.8457,2.8456,2.8456,2.8455,0,2.8284,2.8281,2.8333,2.8344,2.8347,2.8383,2.8392,2.842,2.8419,2.8457,2.8465,2.8465,2.8495,2.849,2.8525,2.8521,2.8577,2.8569,2.8572,2.857,2.8608,2.8604,2.8737,2.8753,2.8637,2.8638,2.8639,0,2.8345,2.8379,2.8393,2.8412,2.8421,2.8451,2.8469,2.8459,2.8478,2.8498,2.8523,2.8552,2.8575,2.8625,2.8627,2.8652,2.8644,2.8689,2.8648,2.865,2.8643,2.8641,2.8644,2.8697,2.8698,2.8699,2.87,0,2.8453,2.845,2.8476,2.8501,2.8523,2.8542,2.856,2.8576,2.8567,2.8589,2.8621,2.8638,2.8673,2.8701,2.8725,2.8732,2.8714,2.8713,2.8723,2.8726,2.8726,2.8725,2.8593,2.871,2.8709,2.8708,2.8707,2.8707,2.8532,2.856,2.8574,2.8603,2.8615,2.8631,2.8658,2.866,2.8686,2.8713,2.8706,2.8741,2.8754,2.8784,2.8793,2.882,2.8803,2.8818,2.8822,2.8825,2.8829,2.8722,2.8824,2.8824,2.8823,2.8823,2.8823,0,2.8638,2.8645,2.8672,2.8697,2.8719,2.8701,2.8719,2.8739,2.877,2.8784,2.8806,2.8841,2.8868,2.8872,2.8897,2.8917,2.891,2.8924,2.8922,2.8924,2.8843,2.8831,2.893,2.893,2.893,2.893,2.893,2.893,2.8696,2.8742,2.874,2.8791,2.8798,2.8832,2.8844,2.8858,2.8869,2.8909,2.8931,2.8933,2.8942,2.8968,2.8991,2.8992,2.9001,2.9019,2.9016,2.894,2.893,2.892,2.8908,2.9021,2.9021,2.9094,2.9095,2.9095]}]]